Location: *
(48.8489°N, 2.3218°E)
Time: 02:24:32
(UTC+00:00)

Cosmos 1959 Rocket - Pass Details

Date: 23 August 2019
Orbit: 946 x 998 km, 83.0° (Epoch: 16 September)

Event Time Altitude Azimuth Distance (km) Brightness Sun altitude
Rises 22:37:50 0° 352° (N) 3,655 8.7 -27.6°
Reaches altitude 10° 22:40:24 10° 356° (N) 2,699 7.7 -27.7°
Maximum altitude 22:46:31 62° 77° (ENE) 1,062 4.5 -28.1°
Enters shadow 22:46:46 62° 90° (E) 1,066 4.5 -28.1°
